GW0010 Weather Reports


Display with metric or nautical units.
time (UTC)temp
F
wind
direction
speed
MPH
gust
MPH
rain 1hr
in
rain 24hr
in
rain mn
in
humidity
%
barometer
mb
20260507160830 71 264 3.0 7.0 0.00 0.00 0.00 29 1027.4
20260507155828 71 270 5.0 7.0 0.00 0.00 0.00 29 1027.8
20260507154827 71 255 5.0 8.0 0.00 0.00 0.00 29 1027.8
20260507153827 70 271 6.0 8.0 0.00 0.00 0.00 29 1027.5
20260507152826 70 246 9.0 11.0 0.00 0.00 0.00 29 1027.8
20260507151824 69 267 8.0 9.0 0.00 0.00 0.00 30 1027.8
20260507150824 70 243 1.0 2.0 0.00 0.00 0.00 29 1027.9
20260507145822 69 242 0.0 3.0 0.00 0.00 0.00 30 1027.9
20260507144822 70 292 3.0 6.0 0.00 0.00 0.00 30 1027.5
20260507143821 69 224 1.0 2.0 0.00 0.00 0.00 32 1027.5
20260507142821 68 218 1.0 2.0 0.00 0.00 0.00 32 1027.4
20260507141820 67 236 3.0 3.0 0.00 0.00 0.00 33 1027.3
20260507140819 67 235 2.0 3.0 0.00 0.00 0.00 34 1027.5
20260507135814 66 263 3.0 5.0 0.00 0.00 0.00 35 1027.5
20260507134814 66 269 3.0 3.0 0.00 0.00 0.00 34 1027.4
20260507133811 67 225 1.0 1.0 0.00 0.00 0.00 34 1027.4
20260507132811 67 203 0.0 0.0 0.00 0.00 0.00 35 1027.3
20260507131811 66 206 0.0 2.0 0.00 0.00 0.00 35 1027.3
20260507130810 63 258 2.0 2.0 0.00 0.00 0.00 38 1027.1
20260507125806 64 249 2.0 3.0 0.00 0.00 0.00 37 1027.0
20260507124806 63 208 0.0 1.0 0.00 0.00 0.00 38 1027.1
20260507123801 62 95 5.0 6.0 0.00 0.00 0.00 38 1026.8
20260507122800 63 228 2.0 2.0 0.00 0.00 0.00 37 1026.5
20260507121757 63 230 2.0 5.0 0.00 0.00 0.00 38 1026.5
20260507120756 63 202 1.0 3.0 0.00 0.00 0.00 38 1026.4
20260507115755 62 228 0.0 1.0 0.00 0.00 0.00 39 1026.6
20260507114752 62 224 1.0 2.0 0.00 0.00 0.00 38 1026.5
20260507113747 62 223 0.0 0.0 0.00 0.00 0.00 39 1026.5
20260507112747 62 222 1.0 2.0 0.00 0.00 0.00 39 1026.6
20260507111742 61 217 0.0 0.0 0.00 0.00 0.00 39 1026.6
20260507110740 62 185 0.0 2.0 0.00 0.00 0.00 39 1026.6
20260507105740 61 88 4.0 5.0 0.00 0.00 0.00 39 1026.5
20260507104739 62 179 1.0 2.0 0.00 0.00 0.00 38 1026.5
20260507103737 62 228 1.0 1.0 0.00 0.00 0.00 38 1026.6
20260507102736 62 223 0.0 1.0 0.00 0.00 0.00 38 1026.5
20260507101735 63 270 2.0 2.0 0.00 0.00 0.00 37 1026.6
20260507100734 63 158 3.0 3.0 0.00 0.00 0.00 37 1026.5
20260507095729 63 190 1.0 1.0 0.00 0.00 0.00 37 1026.4
20260507094729 63 240 3.0 7.0 0.00 0.00 0.00 37 1026.1
20260507093728 63 238 5.0 7.0 0.00 0.00 0.00 37 1025.9
20260507092724 63 243 4.0 7.0 0.00 0.00 0.00 37 1026.2
20260507091722 63 232 5.0 9.0 0.00 0.00 0.00 37 1026.0
20260507090719 63 244 4.0 7.0 0.00 0.00 0.00 37 1026.1
20260507085719 64 212 7.0 9.0 0.00 0.00 0.00 36 1025.9
20260507084719 64 236 6.0 9.0 0.00 0.00 0.00 36 1026.2
20260507083718 64 261 6.0 8.0 0.00 0.00 0.00 36 1026.2
20260507082716 64 245 6.0 9.0 0.00 0.00 0.00 36 1026.2
20260507081714 64 267 7.0 10.0 0.00 0.00 0.00 36 1026.1
20260507080713 64 230 7.0 10.0 0.00 0.00 0.00 36 1026.4
20260507075711 64 257 8.0 11.0 0.00 0.00 0.00 35 1026.4
20260507074709 64 255 7.0 11.0 0.00 0.00 0.00 35 1026.8
20260507073704 64 234 5.0 10.0 0.00 0.00 0.00 35 1026.6
20260507072704 64 261 5.0 9.0 0.00 0.00 0.00 35 1026.9
20260507071659 65 277 7.0 9.0 0.00 0.00 0.00 34 1027.0
20260507070659 65 255 7.0 14.0 0.00 0.00 0.00 34 1026.8
20260507065657 65 249 5.0 8.0 0.00 0.00 0.00 34 1027.0
20260507064657 65 263 5.0 9.0 0.00 0.00 0.00 34 1027.1
20260507063653 65 244 5.0 9.0 0.00 0.00 0.00 34 1027.0
20260507062652 65 280 6.0 9.0 0.00 0.00 0.00 34 1027.1
20260507061648 65 234 6.0 13.0 0.00 0.00 0.00 34 1026.9
20260507060643 66 255 6.0 11.0 0.00 0.00 0.00 33 1027.4
20260507055641 66 261 8.0 10.0 0.00 0.00 0.00 33 1027.5
20260507054639 66 254 8.0 9.0 0.00 0.00 0.00 32 1027.6
20260507053634 66 258 6.0 10.0 0.00 0.00 0.00 32 1027.3
20260507052630 66 261 6.0 9.0 0.00 0.00 0.00 32 1027.4
20260507051630 67 229 6.0 8.0 0.00 0.00 0.00 31 1027.5
20260507050629 67 262 6.0 9.0 0.00 0.00 0.00 31 1027.3
20260507045629 67 233 5.0 7.0 0.00 0.00 0.00 30 1027.6
20260507044628 67 265 2.0 8.0 0.00 0.00 0.00 30 1027.6
20260507043626 68 241 6.0 9.0 0.00 0.00 0.00 29 1027.5
20260507042626 68 243 5.0 7.0 0.00 0.00 0.00 29 1027.6
20260507041624 68 257 5.0 9.0 0.00 0.00 0.00 28 1027.1
20260507040624 69 260 7.0 10.0 0.00 0.00 0.00 27 1027.1
20260507035622 69 229 6.0 15.0 0.00 0.00 0.00 27 1027.0
20260507034621 69 258 6.0 8.0 0.00 0.00 0.00 26 1027.3
20260507033617 69 277 5.0 8.0 0.00 0.00 0.00 25 1027.0
20260507032617 69 257 5.0 7.0 0.00 0.00 0.00 25 1026.9
20260507031615 70 262 5.0 8.0 0.00 0.00 0.00 25 1026.6
20260507030614 70 282 7.0 11.0 0.00 0.00 0.00 25 1026.6
20260507025609 71 275 7.0 11.0 0.00 0.00 0.00 25 1026.6
20260507024604 71 259 8.0 13.0 0.00 0.00 0.00 24 1026.4
20260507023602 72 272 9.0 13.0 0.00 0.00 0.00 24 1026.2
20260507022557 72 238 10.0 15.0 0.00 0.00 0.00 23 1026.0
20260507021554 73 254 11.0 15.0 0.00 0.00 0.00 23 1026.1
20260507020549 73 246 7.0 15.0 0.00 0.00 0.00 22 1026.0
20260507015549 73 258 8.0 13.0 0.00 0.00 0.00 22 1025.9
20260507014549 74 276 8.0 13.0 0.00 0.00 0.00 21 1025.6
20260507013547 75 250 8.0 14.0 0.00 0.00 0.00 21 1025.5
20260507012542 75 256 15.0 20.0 0.00 0.00 0.00 21 1025.3
20260507011541 75 260 13.0 18.0 0.00 0.00 0.00 20 1025.0
20260507010537 76 280 13.0 21.0 0.00 0.00 0.00 20 1025.1
20260507005532 77 256 10.0 22.0 0.00 0.00 0.00 19 1025.1
20260507004531 77 265 14.0 20.0 0.00 0.00 0.00 19 1025.1
20260507003530 77 255 11.0 15.0 0.00 0.00 0.00 19 1025.1
20260507002528 78 280 13.0 17.0 0.00 0.00 0.00 17 1024.8
20260507001526 78 262 13.0 20.0 0.00 0.00 0.00 17 1024.5
20260507000526 78 235 7.0 16.0 0.00 0.00 0.00 17 1024.5
20260506235525 79 257 14.0 20.0 0.00 0.00 0.00 17 1024.7
20260506234524 79 247 13.0 17.0 0.00 0.00 0.00 16 1024.6
20260506233524 79 237 9.0 21.0 0.00 0.00 0.00 17 1024.6
20260506232523 79 262 10.0 18.0 0.00 0.00 0.00 17 1024.5
20260506231522 80 249 9.0 15.0 0.00 0.00 0.00 17 1024.6
20260506230521 80 277 10.0 17.0 0.00 0.00 0.00 18 1024.3
20260506225516 79 290 6.0 20.0 0.00 0.00 0.00 17 1024.7
20260506224515 79 214 8.0 17.0 0.00 0.00 0.00 17 1024.2
20260506223512 79 258 13.0 20.0 0.00 0.00 0.00 18 1024.5
20260506222511 80 248 20.0 24.0 0.00 0.00 0.00 17 1024.5
20260506221510 80 224 10.0 17.0 0.00 0.00 0.00 16 1024.3
20260506220508 79 255 7.0 14.0 0.00 0.00 0.00 17 1024.5
20260506215507 80 259 10.0 23.0 0.00 0.00 0.00 17 1024.3
20260506214506 80 262 17.0 24.0 0.00 0.00 0.00 16 1024.6
20260506213500 80 261 17.0 26.0 0.00 0.00 0.00 17 1024.6
20260506212459 80 248 14.0 22.0 0.00 0.00 0.00 16 1024.8
20260506211456 79 248 12.0 23.0 0.00 0.00 0.00 16 1024.8
20260506210456 79 244 12.0 17.0 0.00 0.00 0.00 16 1025.1
20260506205455 79 256 6.0 18.0 0.00 0.00 0.00 16 1025.0
20260506204455 79 267 3.0 15.0 0.00 0.00 0.00 17 1025.1
20260506203455 79 253 18.0 24.0 0.00 0.00 0.00 17 1025.2
20260506202455 78 258 8.0 16.0 0.00 0.00 0.00 16 1025.2
20260506201455 78 270 14.0 20.0 0.00 0.00 0.00 16 1026.1
20260506200454 79 252 9.0 18.0 0.00 0.00 0.00 16 1025.6
20260506195454 78 260 5.0 14.0 0.00 0.00 0.00 17 1025.7
20260506194448 78 288 11.0 13.0 0.00 0.00 0.00 17 1026.0
20260506193447 77 225 11.0 16.0 0.00 0.00 0.00 17 1026.1
20260506192447 78 247 10.0 17.0 0.00 0.00 0.00 17 1026.2
20260506191446 77 288 14.0 17.0 0.00 0.00 0.00 16 1026.8
20260506190445 77 248 7.0 13.0 0.00 0.00 0.00 16 1026.6
20260506185445 77 246 17.0 20.0 0.00 0.00 0.00 17 1026.8
20260506184445 78 217 13.0 17.0 0.00 0.00 0.00 17 1026.9
20260506183443 77 223 7.0 20.0 0.00 0.00 0.00 16 1027.0
20260506182438 77 261 11.0 22.0 0.00 0.00 0.00 17 1027.1
20260506181433 76 259 7.0 15.0 0.00 0.00 0.00 16 1027.1
20260506180432 76 244 9.0 17.0 0.00 0.00 0.00 16 1027.3
20260506175431 75 262 13.0 18.0 0.00 0.00 0.00 17 1027.4
20260506174426 74 270 10.0 16.0 0.00 0.00 0.00 16 1027.3
20260506173425 74 259 11.0 16.0 0.00 0.00 0.00 16 1027.3
20260506172425 75 250 9.0 15.0 0.00 0.00 0.00 16 1027.4
20260506171425 74 254 8.0 14.0 0.00 0.00 0.00 16 1027.6
20260506170425 73 256 6.0 18.0 0.00 0.00 0.00 16 1027.6
20260506165422 73 259 8.0 11.0 0.00 0.00 0.00 16 1027.6
20260506164420 73 276 6.0 13.0 0.00 0.00 0.00 16 1027.6
20260506163419 72 231 7.0 10.0 0.00 0.00 0.00 15 1027.5
20260506162418 73 278 9.0 11.0 0.00 0.00 0.00 14 1027.6